Hauptseite
METAR-TAF:

METAR-TAF

Flughäfen :

Militärflugplatz Sarzana-Luni

Sarzana, Italien

Breite: 44-05N, Länge: 009-59E, Höhe: 9 m

Beobachtung

Neuester Wetterbericht von vor 3 Stunden und 37 Minuten, um 20:55 UTC
Wind 5 kt aus Nordwest
Temperatur 15°C
Luftfeuchtigkeit 67%
Luftdruck 1025 hPa
Sichtweite 10 km oder mehr
Leicht bewölkt in der Höhe von 2500 ft

METAR: LIQW 142055Z 31005KT 9999 FEW025 15/09 Q1025 RMK BKN SCT070 VIS MIN 9999 WIND THR18 30007KT BLU

Zeit: 01:32 (00:32 UTC)


TAF: fehlend

Wetterbeobachtungen und Prognosen von mehr als 4000 Flughäfen (METAR und TAF Bericht).

Die verfügbaren Stationen werden durch gelbe und rote Markierungen auf der Karte dargestellt.

Führen Sie die Maus auf sie, um den Namen der Station zu sehen.

Darauf klicken, um die Beobachtung von Wetterbeobachtungen und Prognosen zu sehen.

Um die Karte zu ändern : klicken Sie auf den grünen Tasten mit einem schwarzen Kreuz Zum Vergrößern, auf den grünen Button mit einem Gedankenstrich zu verkleinern, oder auf die grünen Pfeile für benachbarte Karten.


METAR-TAF: